GFSWCAN_sfc_thetae_132.txt.gz
Theta_e
304 304 302 304 304 304 304 304 303 303 304 304 304 304 303 302 302 294 290 293 291 285 283 282 283 286 286 288 285 285 287 286 283 281 280 277 278 278 278 281 280 280 278 279 280 276 274 290 288 284 290 293 293 291
302 304 304 303 303 303 303 303 303 303 303 304 303 303 303 302 300 299 290 292 294 287 284 285 283 284 284 287 287 284 286 284 287 282 280 280 278 277 278 277 283 279 284 282 283 283 290 292 291 287 287 287 286 284
300 301 303 304 304 304 303 302 301 301 301 301 301 301 301 300 298 295 289 288 291 286 285 285 282 286 290 288 288 286 284 288 287 288 283 282 280 281 277 278 280 283 285 283 284 287 288 291 286 281 279 278 280 280
299 299 300 302 303 303 302 301 301 301 300 300 299 299 298 297 296 293 286 287 289 285 281 281 289 286 290 291 289 289 288 288 289 289 286 283 281 285 282 282 282 285 285 284 283 286 287 288 277 275 275 277 277 277
297 298 298 300 301 302 300 300 299 299 298 298 298 297 296 295 294 290 289 288 287 287 279 281 285 288 289 290 288 289 289 287 286 284 281 281 283 284 283 283 282 275 274 280 281 269 270 276 273 273 273 272 273 273
295 296 296 297 298 300 299 299 299 298 298 297 297 296 295 294 290 288 285 288 289 286 282 276 283 282 284 288 288 287 288 285 286 284 283 283 283 285 280 278 265 265 265 265 265 266 267 269 271 273 268 270 272 272
294 295 295 295 296 298 300 300 299 297 297 296 296 295 293 292 288 283 281 284 288 286 280 275 278 280 278 283 284 284 287 285 286 284 282 282 282 286 281 277 261 263 263 263 265 264 267 267 265 266 268 269 269 269
293 294 294 294 295 296 298 299 300 297 296 294 293 291 290 290 288 282 285 285 285 279 278 274 273 277 276 276 278 280 281 282 283 282 281 275 277 273 273 262 262 262 262 263 262 263 262 263 264 264 265 266 265 266
293 293 293 293 293 294 295 298 297 296 294 294 292 288 283 277 279 280 288 283 277 280 271 269 272 272 274 272 274 278 279 276 280 277 271 271 264 266 259 260 260 260 259 259 260 260 261 260 260 261 262 262 262 263
292 292 292 292 292 292 293 296 294 293 292 290 283 278 274 275 283 283 276 276 271 266 266 263 262 269 272 272 272 275 274 275 273 269 268 262 259 262 261 260 260 260 260 259 256 256 257 257 258 260 260 262 262 262
290 291 291 291 291 291 291 291 290 289 287 277 273 273 276 279 277 270 267 268 264 266 261 260 261 266 269 270 269 273 271 271 271 268 267 261 260 261 260 258 259 259 259 258 258 259 259 259 259 259 260 261 261 261
289 290 290 290 290 289 290 290 288 278 273 275 274 273 272 269 269 268 258 262 262 262 259 262 262 263 265 269 268 271 270 270 268 268 265 261 261 259 257 256 257 257 257 257 258 258 259 259 260 260 260 260 260 262
288 289 290 289 289 288 287 287 286 283 278 274 270 266 269 264 265 262 260 262 262 258 257 257 262 260 263 267 266 267 267 267 267 264 263 262 260 258 256 254 255 257 257 257 257 258 259 259 260 260 260 260 261 261
287 288 288 288 287 287 285 284 283 278 271 266 265 262 262 261 259 259 260 259 259 258 257 258 257 260 259 264 265 265 267 266 262 260 262 260 258 255 254 254 254 256 257 256 257 257 258 258 259 260 260 260 260 259
285 285 286 287 286 286 283 281 277 265 266 262 264 259 257 255 253 252 250 253 255 255 257 256 256 261 261 261 262 263 263 261 261 262 261 259 257 255 254 256 255 256 256 256 257 257 257 258 258 259 260 260 260 260
283 281 280 287 285 283 281 271 265 263 257 260 258 257 251 256 257 254 252 255 254 257 255 255 255 258 259 259 259 261 261 261 262 260 259 258 257 256 256 256 256 256 256 256 257 257 258 257 257 258 259 259 259 259
281 270 283 285 282 278 278 265 264 255 257 257 254 245 252 254 258 255 253 255 256 254 258 254 257 260 259 258 257 256 260 261 259 258 260 259 258 257 256 256 256 256 256 256 256 257 257 258 258 257 256 257 258 258
269 274 283 283 270 269 260 259 259 259 255 252 258 254 249 250 253 251 249 251 253 253 252 257 257 256 258 258 259 258 257 257 259 259 259 259 258 257 256 256 256 256 255 255 256 256 257 256 256 255 255 256 257 257
273 276 281 280 271 262 262 259 258 257 251 248 249 250 250 250 248 248 248 249 249 250 253 253 255 258 259 256 257 255 257 259 260 259 258 257 257 256 254 254 254 254 254 254 255 255 256 256 255 255 255 255 255 256
281 280 279 276 272 263 259 257 255 258 254 253 248 250 251 252 248 245 246 248 251 251 253 254 258 258 257 258 259 260 259 259 258 257 258 257 256 254 254 253 253 252 253 253 254 255 255 255 255 254 253 254 253 253
272 271 274 265 259 256 254 251 254 251 250 254 247 250 253 248 249 249 249 246 251 254 257 255 256 256 253 253 254 255 256 255 255 257 257 256 253 252 252 252 251 251 252 252 252 253 253 253 252 252 252 252 253 253
263 273 262 265 260 255 253 250 253 251 252 249 251 248 250 252 250 247 245 249 253 257 255 254 252 251 248 250 250 248 248 247 246 249 248 248 253 253 252 251 250 251 250 251 251 252 252 252 251 251 251 251 252 252
268 266 260 259 260 257 252 249 252 249 255 253 248 253 251 247 246 246 251 252 254 249 246 246 243 239 245 240 239 241 241 246 249 248 248 248 248 247 247 248 247 248 250 252 250 249 250 249 250 250 250 250 250 251
263 255 255 253 254 253 248 248 247 247 247 248 249 253 251 245 244 249 254 252 252 242 243 242 243 246 244 242 247 249 247 243 246 245 243 246 249 251 248 249 248 248 249 250 248 249 249 250 248 249 249 248 249 248
263 255 254 254 248 251 250 248 247 250 251 241 247 250 248 239 249 248 253 255 247 246 246 238 240 245 251 248 247 246 240 246 248 251 249 247 249 249 251 250 250 249 247 250 252 251 250 248 248 248 248 247 247 247
258 248 253 250 250 254 250 253 249 249 243 247 246 242 238 247 251 255 255 255 251 251 245 248 250 245 246 247 250 249 251 244 246 251 251 248 249 253 253 252 253 254 247 249 250 250 249 248 246 245 247 247 246 246
257 254 244 240 243 244 244 240 240 245 248 252 249 247 248 251 252 258 256 253 254 252 252 255 255 255 256 251 251 247 244 248 249 250 247 249 250 250 252 252 251 253 248 246 247 247 248 247 246 247 247 247 247 247
249 245 256 245 244 239 247 244 246 249 251 248 250 253 253 256 259 258 256 252 247 245 245 245 246 248 250 249 248 249 243 242 243 245 246 246 246 247 247 248 248 252 248 248 248 247 246 246 246 247 247 247 248 248
249 245 248 245 243 247 250 253 253 251 248 249 253 254 257 257 254 250 250 249 245 248 248 248 248 243 245 244 244 244 246 248 251 251 251 254 251 254 246 247 247 247 247 246 249 252 248 248 249 249 248 247 247 245
247 242 249 249 252 255 253 249 249 244 244 244 242 245 248 249 250 246 243 243 248 252 252 250 251 249 251 252 252 249 245 247 253 257 256 254 254 250 247 247 247 246 246 245 248 248 250 248 249 245 245 245 244 244
243 245 249 249 252 249 246 243 242 242 242 241 240 241 244 244 245 247 244 242 242 243 246 251 251 250 253 253 253 252 255 250 250 251 249 248 248 249 248 248 248 246 245 246 245 244 245 245 243 241 243 243 243 244
247 249 251 254 252 246 244 245 244 244 244 243 243 240 241 241 244 249 246 241 240 240 245 248 252 254 253 254 253 253 253 252 250 250 250 250 250 249 249 248 246 246 246 247 245 244 243 242 242 242 243 242 242 242
248 248 248 250 252 251 248 245 246 245 243 243 245 244 242 242 246 250 245 243 246 244 243 246 249 252 253 253 253 254 254 253 252 255 254 254 253 252 249 248 248 248 247 247 246 245 243 241 242 241 241 241 241 242

GFSWCAN_sfc_thetae_135.txt.gz
Theta_e
303 302 302 302 303 302 302 303 303 304 303 303 303 303 303 302 302 298 293 299 297 286 283 283 283 288 290 292 287 288 289 287 286 284 284 281 281 280 281 284 281 280 279 280 281 278 276 292 289 284 287 289 287 286
303 302 302 302 302 302 303 302 303 303 304 303 303 303 303 303 303 300 291 295 293 286 283 287 286 287 286 287 292 292 288 287 290 287 285 284 281 281 283 278 285 280 285 283 284 283 292 293 290 284 282 282 281 281
300 302 302 302 302 302 301 301 301 301 301 301 301 301 301 302 301 298 292 292 293 286 285 285 283 287 292 291 292 290 289 291 289 292 288 286 282 285 279 280 282 285 288 284 285 288 290 291 282 278 278 277 279 279
299 300 302 301 301 301 300 300 300 300 299 299 299 299 299 298 298 295 288 290 295 288 282 281 290 286 292 294 292 294 291 293 292 293 287 286 284 286 283 284 283 284 286 285 284 286 280 279 275 274 275 276 275 275
297 298 299 301 301 300 299 299 299 299 298 298 298 297 297 297 296 293 291 290 290 291 281 282 287 287 290 293 293 294 293 292 291 287 283 283 286 286 285 285 283 272 271 279 281 272 269 272 273 273 272 271 271 272
295 296 297 298 301 301 298 298 297 297 297 298 296 296 296 294 293 295 286 291 287 291 286 279 285 281 283 288 288 289 289 289 290 288 286 286 285 286 281 280 267 267 268 268 268 268 268 269 272 272 268 268 270 269
294 295 295 296 297 299 299 298 297 296 295 294 294 295 294 293 289 284 282 283 287 290 285 280 280 281 279 284 284 286 288 286 289 285 283 284 284 285 282 278 265 265 265 266 267 265 267 268 265 266 267 267 267 266
293 294 294 294 295 297 298 298 297 296 296 295 292 292 293 293 291 285 286 287 287 286 285 279 276 279 278 280 279 281 283 285 284 284 281 278 281 278 276 264 264 264 264 265 264 264 263 264 264 263 264 264 263 264
293 293 293 293 293 294 294 295 295 295 294 293 291 289 289 284 285 284 288 286 282 284 276 276 278 275 278 277 279 280 282 278 282 278 273 275 272 273 262 262 262 262 261 261 262 262 261 260 260 261 261 261 261 262
292 292 292 292 292 292 292 293 293 292 291 289 289 286 284 282 284 285 284 283 276 273 274 268 268 272 274 278 277 279 279 278 275 272 272 271 268 264 263 262 262 261 261 261 257 258 258 257 258 259 260 261 262 261
291 291 291 291 291 291 291 291 291 289 290 286 284 282 283 283 285 280 274 273 271 271 267 265 265 271 272 274 274 276 275 275 273 271 271 268 266 264 261 260 260 260 260 260 259 259 259 259 259 259 260 261 261 261
290 290 290 290 290 290 290 289 289 284 280 280 281 279 283 277 280 274 266 269 267 265 265 267 265 266 270 272 274 274 273 274 270 271 269 267 265 261 259 258 258 258 257 257 258 258 259 260 260 260 260 260 260 261
289 289 290 289 290 289 288 288 286 283 281 283 281 275 278 272 269 271 268 269 268 264 261 263 266 265 269 271 271 272 270 270 271 268 268 267 262 260 258 256 256 256 255 256 257 258 259 259 260 260 260 260 261 260
287 288 288 289 288 288 286 285 283 281 281 274 274 268 268 269 265 264 265 264 262 263 262 263 264 266 265 269 269 269 269 270 266 264 266 265 261 257 255 256 254 255 255 255 257 258 259 259 259 260 260 260 260 259
286 286 287 288 287 286 285 282 279 274 274 270 272 264 263 259 259 258 257 260 260 260 261 262 263 265 265 266 267 267 265 265 267 268 266 264 259 256 255 257 255 255 255 257 258 258 258 259 259 259 260 260 260 259
285 283 283 287 286 283 283 277 274 272 265 267 264 263 258 263 262 260 260 261 259 261 260 260 262 264 265 265 264 265 265 265 267 265 263 260 257 256 256 256 257 257 257 257 258 258 259 258 258 258 259 259 259 259
282 279 284 286 283 279 279 275 273 263 266 266 261 257 262 264 264 262 261 260 260 259 264 262 264 265 263 263 262 264 265 266 263 262 262 261 260 258 257 257 256 256 256 257 257 258 258 259 258 258 257 258 258 259
278 280 283 283 277 275 268 268 268 268 262 260 265 261 259 259 261 259 258 258 258 260 259 263 262 262 263 264 266 265 262 262 262 263 262 261 260 259 259 258 257 256 256 255 255 256 257 257 257 257 256 257 258 258
280 282 281 281 276 272 271 266 265 265 259 258 257 257 258 257 254 254 256 255 255 256 259 259 260 263 266 265 265 262 262 263 262 261 262 261 260 258 257 256 256 256 255 255 256 257 257 257 256 256 256 256 256 257
281 280 280 276 276 273 267 264 264 266 264 259 257 259 260 259 255 254 254 255 256 257 258 258 263 267 266 265 264 264 264 264 262 260 260 259 259 256 256 256 257 255 255 255 256 256 257 257 257 256 255 255 255 255
275 276 275 272 266 263 261 260 261 258 257 261 255 258 259 255 257 257 257 253 255 259 262 265 265 263 258 258 259 260 261 261 261 263 262 259 258 257 256 255 254 255 255 255 256 256 255 255 255 254 254 254 254 254
271 274 271 271 267 263 259 256 260 256 260 256 258 256 261 261 260 256 251 254 259 265 264 264 262 260 255 255 255 255 256 255 253 253 252 254 256 255 255 256 255 256 255 255 255 255 255 255 254 253 253 253 253 254
270 270 266 267 265 264 255 256 260 257 261 260 256 261 261 259 254 250 254 261 263 259 256 256 253 248 255 248 246 248 247 251 255 255 255 255 255 254 253 253 253 253 254 256 254 254 253 253 252 252 253 253 252 253
266 259 260 260 261 257 256 256 256 257 258 259 260 259 259 256 249 255 260 264 262 251 251 251 251 252 250 248 252 255 252 250 254 254 253 254 254 255 254 254 254 253 254 255 253 253 253 253 251 252 252 251 251 251
266 259 259 256 255 258 257 257 256 259 257 253 255 257 255 247 257 258 260 265 259 256 255 250 251 256 260 261 259 257 248 252 254 255 256 253 256 254 254 253 254 254 253 252 252 253 253 251 251 251 250 250 249 248
263 253 257 257 256 260 259 258 255 255 254 254 255 251 249 255 255 258 262 264 262 260 254 253 254 254 254 255 259 257 255 249 254 256 258 253 254 258 259 258 257 257 252 254 254 253 253 251 250 248 250 249 248 247
261 260 250 245 250 251 252 248 247 252 254 255 256 253 254 254 256 261 263 261 261 259 256 258 259 259 261 259 257 255 251 251 254 256 254 254 255 257 258 258 256 257 253 252 252 251 251 250 249 249 249 250 249 248
257 254 262 253 252 248 256 254 255 255 258 255 256 256 257 258 261 263 261 256 253 252 253 253 253 255 257 257 256 252 249 249 248 250 252 253 252 253 252 253 252 254 252 251 251 250 249 249 248 248 248 249 249 249
256 251 255 252 252 252 255 259 260 258 255 256 258 259 261 262 259 257 257 253 250 252 255 257 255 251 251 250 250 253 250 251 253 253 253 257 256 258 251 252 252 251 252 251 252 253 249 249 249 249 248 248 248 246
253 248 256 256 258 260 258 254 255 249 248 248 246 249 252 253 254 252 251 251 252 254 255 254 254 253 256 255 256 252 250 253 256 259 259 259 258 255 251 250 251 251 251 250 250 250 253 252 251 248 247 246 247 246
248 249 255 257 258 255 250 247 246 246 246 246 244 245 248 248 248 251 250 250 249 248 249 250 251 252 254 256 258 258 258 254 252 254 254 255 254 254 253 253 253 251 250 250 250 249 249 248 247 244 245 244 243 244
249 254 257 258 258 249 248 249 249 249 248 247 248 244 246 247 249 254 251 248 248 249 250 248 248 250 253 256 258 258 257 257 255 254 253 255 255 254 254 253 251 250 250 250 250 250 248 246 245 245 246 244 243 243
251 252 252 254 256 255 251 250 252 251 249 249 250 248 248 248 250 254 250 248 251 250 249 248 248 249 250 250 254 257 257 256 255 257 256 257 256 255 253 252 251 251 251 251 251 250 248 246 245 244 244 243 242 243

GFSWCAN_sfc_thetae_138.txt.gz
Theta_e
303 303 302 301 301 302 304 305 305 305 305 305 305 304 303 303 302 297 292 295 291 282 282 284 284 286 289 288 285 287 284 283 281 278 276 274 272 274 275 279 279 278 278 276 277 272 268 287 286 281 279 281 279 279
303 302 302 301 301 301 301 301 304 304 305 305 305 304 303 302 301 301 291 293 292 285 283 287 286 288 287 287 289 287 285 283 286 280 278 278 272 274 274 269 283 276 282 278 280 277 283 281 277 276 276 276 275 275
300 302 302 301 301 301 300 300 300 302 303 304 304 303 303 303 301 298 292 291 292 285 285 285 283 287 291 291 292 286 284 289 286 289 283 281 273 279 271 273 278 281 284 279 280 278 279 276 274 273 274 273 273 273
298 300 302 301 300 300 300 299 299 300 300 301 302 301 300 299 298 295 288 289 292 286 280 281 289 285 290 294 292 292 290 290 289 287 282 281 275 281 278 279 278 276 281 279 279 272 275 274 271 271 272 271 270 270
296 297 299 300 300 300 299 298 297 297 298 298 299 300 298 298 296 292 289 288 288 288 280 281 285 284 286 291 291 292 290 288 284 281 279 275 281 279 278 279 273 269 266 272 270 267 267 270 270 270 267 267 268 268
295 295 296 297 298 299 298 298 298 297 296 298 297 297 296 295 294 292 285 288 287 287 285 277 283 280 281 285 286 287 287 286 283 282 281 279 282 280 271 268 266 266 267 267 266 266 266 268 269 267 265 266 266 266
294 295 295 295 295 296 296 297 296 296 295 295 296 295 294 293 287 282 281 283 288 287 283 279 278 280 278 279 280 280 285 283 283 281 281 279 279 279 272 267 264 264 264 265 265 265 267 265 263 264 265 265 265 264
294 294 294 294 294 294 295 295 295 295 295 293 293 294 294 293 290 282 284 287 287 285 284 275 271 273 277 277 278 280 279 278 280 279 273 272 276 272 266 264 264 264 264 264 263 263 262 263 263 262 263 263 261 262
293 293 293 293 293 294 294 294 294 294 294 292 290 290 287 282 277 278 288 287 281 281 273 271 270 268 275 274 279 280 278 273 276 274 267 268 264 263 261 263 263 262 261 260 261 261 261 259 259 260 260 259 259 260
292 292 292 292 292 292 293 293 293 292 292 292 288 282 277 277 286 286 279 277 274 270 271 264 266 264 271 273 269 271 276 275 266 265 266 262 261 261 262 259 261 261 261 260 256 255 254 253 255 257 258 259 260 260
291 291 291 291 291 291 291 291 292 289 290 282 278 275 280 285 281 275 267 267 266 263 263 261 261 263 269 267 266 272 272 272 266 263 263 258 258 260 259 256 258 259 259 257 256 256 255 255 255 256 256 256 257 258
290 290 291 291 291 291 290 290 289 281 275 276 277 278 278 274 272 268 261 263 261 257 258 259 261 263 264 268 265 266 266 265 260 262 260 257 261 256 255 253 253 252 251 251 251 252 254 256 255 256 256 255 257 260
289 289 290 290 290 290 289 288 287 284 281 279 274 268 271 267 264 261 259 261 258 258 256 257 258 262 264 267 263 264 260 260 262 259 259 261 258 254 252 250 250 248 249 248 249 250 251 255 255 253 254 256 260 260
288 288 289 290 289 288 288 286 285 283 276 269 267 262 262 259 257 255 256 255 257 259 256 258 258 261 260 263 264 260 263 262 257 256 259 256 255 253 249 249 249 249 248 249 249 254 254 255 256 255 255 257 258 258
287 286 287 287 289 287 286 284 282 272 269 264 264 256 255 255 254 252 251 253 255 256 257 256 257 265 258 259 261 260 258 255 259 260 257 254 251 251 249 249 248 248 248 249 252 254 255 256 253 255 255 257 257 258
286 284 282 287 287 284 284 277 273 268 263 261 259 257 253 256 253 252 253 252 255 258 255 255 255 256 256 256 256 255 259 257 260 256 254 253 251 249 249 249 249 249 249 250 251 251 250 251 250 253 256 256 256 257
284 275 284 286 285 281 281 272 267 262 261 259 254 253 255 256 255 253 254 254 257 253 254 255 255 256 258 255 254 257 258 257 254 254 254 254 253 252 251 253 254 253 254 253 251 250 248 249 249 252 252 255 256 257
274 277 284 284 279 275 265 266 264 261 256 256 257 253 253 253 253 251 251 253 253 254 253 255 256 254 254 254 256 257 254 253 254 254 254 253 253 254 257 258 258 257 256 255 253 251 250 249 250 252 252 253 254 254
277 279 282 281 275 267 263 261 262 257 252 252 253 254 252 250 250 251 250 251 251 251 252 252 251 252 256 257 256 254 253 253 254 255 255 256 258 259 258 258 257 255 254 252 251 252 251 250 250 251 252 252 251 253
280 280 280 277 277 267 260 259 260 260 255 254 253 253 253 251 249 248 247 249 251 249 250 250 255 258 260 257 255 255 255 256 256 254 257 257 258 257 257 256 255 253 251 251 250 252 250 250 250 251 250 250 249 249
275 274 276 270 264 261 258 255 255 253 252 254 251 253 252 250 249 248 248 249 248 251 253 257 256 253 250 250 252 255 259 261 260 260 260 259 258 257 255 253 252 250 249 249 249 248 250 249 250 249 249 248 249 248
268 275 267 269 264 258 256 253 255 253 254 250 252 251 252 251 250 247 246 246 251 255 257 255 253 250 247 249 249 250 251 254 254 252 253 254 253 252 251 251 250 248 249 248 247 248 248 249 248 248 247 247 248 248
271 269 264 263 261 258 253 252 254 251 255 253 250 253 252 250 247 247 247 251 255 252 247 247 245 243 247 242 243 243 243 250 249 249 249 248 247 247 247 247 248 249 248 249 249 249 248 250 248 247 246 246 245 245
267 258 257 256 256 254 252 252 253 252 252 252 253 252 251 248 246 247 250 253 254 245 245 244 244 245 244 243 244 247 247 245 246 246 246 249 246 246 248 248 248 249 249 247 247 246 246 246 248 245 245 243 242 242
262 260 257 255 252 255 255 253 252 253 253 249 250 251 249 243 249 249 251 256 251 247 247 244 245 247 249 249 249 248 244 250 251 251 246 249 246 245 245 245 247 249 248 246 245 246 245 244 244 244 243 242 242 241
260 255 257 257 255 259 257 257 254 254 250 250 249 246 244 248 249 253 255 255 253 251 250 252 253 250 250 253 250 248 250 247 248 249 248 252 253 252 251 250 248 251 251 250 249 248 246 245 243 243 242 243 245 242
262 258 250 246 251 253 252 250 250 252 252 253 252 249 251 252 253 257 256 254 253 250 250 251 256 257 256 253 252 247 246 252 251 250 247 250 252 254 254 254 252 253 251 251 249 248 248 247 244 243 243 242 242 242
258 255 260 253 252 251 255 254 255 255 257 256 256 254 255 257 259 258 257 253 248 247 247 247 248 249 251 254 252 251 247 247 246 246 246 247 246 247 247 246 247 255 250 250 249 248 245 246 245 244 243 243 243 242
255 253 256 254 252 253 256 259 258 258 256 256 258 258 259 260 255 252 253 250 247 247 247 248 248 244 245 246 247 252 250 251 253 252 253 254 252 254 251 250 249 249 249 249 254 250 247 247 246 245 245 243 243 240
252 251 257 256 258 259 257 254 254 249 250 250 248 249 252 253 253 250 249 248 248 249 248 247 245 245 246 247 247 246 249 253 256 258 258 258 258 252 250 251 251 251 250 249 250 249 255 252 251 247 244 243 241 241
250 251 255 257 257 254 250 248 248 248 248 248 246 246 247 247 248 249 248 247 245 243 244 245 243 243 245 247 249 248 250 251 253 255 256 256 254 253 252 252 253 252 251 251 250 249 249 248 247 248 243 241 240 241
251 254 255 255 255 250 249 251 251 250 250 248 249 245 247 246 248 252 248 246 244 245 246 244 242 244 244 245 246 248 253 252 253 255 256 256 256 256 255 254 253 252 251 251 251 250 249 249 248 247 243 243 242 240
251 251 251 253 253 254 252 251 251 249 248 247 249 248 247 247 250 253 249 248 249 247 245 244 242 242 243 244 245 247 251 250 252 258 257 258 258 257 255 254 253 252 252 251 251 250 249 248 248 246 244 243 243 242

GFSWCAN_sfc_thetae_141.txt.gz
Theta_e
302 302 301 302 303 305 305 306 306 306 305 305 305 304 304 304 303 293 289 291 287 282 283 284 284 285 288 288 286 287 286 285 280 275 273 270 269 274 272 276 279 277 276 275 274 274 272 277 282 281 276 276 275 274
301 301 301 300 301 302 303 304 304 305 305 305 305 303 303 303 302 297 287 291 291 285 284 287 286 287 287 287 289 286 284 283 284 279 276 273 269 269 271 269 281 275 280 275 278 276 274 274 272 274 275 272 271 271
299 300 301 300 299 299 300 301 304 305 304 304 305 304 303 302 301 297 289 288 288 284 284 284 283 287 290 289 291 286 283 288 285 286 279 278 270 276 270 270 276 280 283 280 279 275 272 272 271 272 271 270 270 270
298 298 299 298 298 298 298 299 301 303 303 302 302 301 300 298 297 294 287 287 288 284 280 281 288 284 288 292 291 291 290 289 287 283 281 277 271 280 276 278 276 274 278 278 270 272 271 270 269 269 269 269 268 268
297 297 297 298 298 298 298 297 298 299 300 301 300 299 299 298 297 292 289 287 288 286 277 280 285 285 286 289 290 290 289 286 279 278 273 272 276 277 274 277 271 268 270 275 274 269 270 270 269 267 267 266 266 266
295 295 296 296 297 297 297 297 297 297 298 298 299 299 297 297 295 291 286 290 286 288 283 276 282 280 281 286 285 286 287 284 280 278 280 276 280 278 267 263 265 266 266 266 266 267 267 268 269 266 265 264 265 264
294 294 295 295 295 296 296 296 296 295 296 296 296 296 295 293 286 281 280 284 289 288 283 278 277 281 279 282 281 282 285 282 280 279 278 276 277 276 265 264 264 264 264 264 264 265 266 265 263 264 264 264 263 263
293 294 294 294 294 295 295 295 295 295 294 294 295 295 294 293 289 281 284 286 287 284 282 275 273 276 277 274 274 277 273 274 279 276 271 271 273 268 265 264 265 264 263 263 262 263 263 263 262 262 262 262 260 261
293 293 293 293 293 293 294 294 294 294 293 292 292 291 284 280 277 277 289 286 279 278 269 266 266 268 274 273 278 275 272 273 273 266 266 269 262 265 262 264 264 263 263 262 261 260 260 259 259 259 259 258 258 259
291 292 292 292 293 292 293 293 293 292 292 293 283 276 272 274 287 285 274 272 271 265 265 261 263 264 271 271 267 270 272 267 263 264 266 261 260 260 263 260 262 262 261 260 256 254 252 251 253 256 256 257 257 257
291 291 292 292 291 292 291 292 291 288 286 276 269 268 275 285 275 267 264 265 261 260 259 257 260 261 268 265 263 271 271 269 261 263 263 254 259 261 259 257 258 259 258 256 255 255 253 252 251 251 253 252 252 253
290 290 291 291 291 291 291 291 290 276 268 271 272 273 270 268 266 266 255 259 258 256 256 255 259 261 261 267 263 265 261 262 259 256 258 255 261 254 255 251 250 251 252 250 249 252 252 254 252 252 252 252 253 254
290 289 290 291 291 290 290 289 288 286 281 271 267 264 267 262 262 258 254 257 255 254 253 253 257 260 262 265 259 260 258 257 258 255 257 260 256 252 249 249 247 245 245 246 247 247 248 249 249 250 250 251 252 253
289 288 289 289 290 289 289 287 285 282 272 266 262 260 258 254 250 249 251 250 255 256 252 254 252 257 255 260 259 257 259 259 253 254 258 256 255 253 248 246 250 248 247 247 247 247 248 249 249 248 250 250 250 250
288 286 287 287 289 288 287 284 281 267 264 259 260 254 253 251 248 247 245 249 251 251 252 253 253 263 255 258 260 258 258 255 257 259 258 255 253 253 249 246 248 248 247 247 247 249 249 248 248 247 247 247 248 249
287 282 280 288 288 285 285 273 266 262 257 257 256 254 248 250 250 247 246 248 250 254 251 252 250 254 253 253 255 254 256 257 260 258 255 253 251 248 248 248 249 248 248 248 247 248 249 249 250 249 247 248 248 248
282 269 285 286 286 281 280 265 263 257 256 254 252 244 250 248 251 248 247 250 254 251 252 250 255 255 256 252 253 253 256 257 253 251 249 249 252 250 249 247 246 246 247 250 252 252 252 251 250 252 251 249 249 251
267 274 285 285 278 271 260 260 259 257 252 250 255 250 246 247 247 246 246 249 251 250 249 253 255 252 252 252 254 257 252 250 248 250 251 249 248 248 251 252 251 254 255 253 254 253 252 251 251 251 249 250 250 251
273 277 283 282 274 261 260 260 258 254 250 246 248 249 246 245 246 247 244 247 247 248 250 248 250 251 254 255 256 251 248 251 253 253 251 249 252 253 254 257 257 256 256 254 252 252 252 252 251 251 250 250 249 249
281 280 281 278 274 262 258 257 256 256 252 253 248 248 248 248 245 242 242 245 247 245 249 249 254 255 257 257 256 255 253 254 254 250 251 252 255 256 257 256 256 255 253 250 250 252 249 250 249 249 249 249 247 247
273 271 276 266 260 257 255 251 253 250 249 252 246 250 249 245 245 244 245 244 247 249 251 253 252 252 245 246 247 250 254 257 255 256 256 257 258 259 257 255 253 251 251 251 252 252 252 252 250 249 247 246 246 246
265 275 264 267 261 255 254 250 254 251 253 248 250 247 247 248 246 244 243 245 248 253 253 252 250 247 246 249 250 247 249 249 248 250 252 255 253 253 250 252 250 251 251 251 250 250 250 249 246 246 246 246 247 246
270 268 263 261 260 258 253 250 253 249 255 252 248 251 251 248 245 247 246 248 251 251 245 245 244 240 245 241 242 243 242 248 249 247 247 247 244 245 246 249 251 250 249 250 249 250 250 250 251 248 247 246 245 244
267 259 259 258 258 254 250 250 250 249 249 250 251 252 251 248 246 247 251 251 254 243 244 244 242 244 244 244 245 248 250 245 245 244 243 247 246 247 245 246 245 247 248 246 247 248 247 248 248 246 244 243 241 241
264 262 260 257 252 255 253 251 249 252 254 249 252 253 251 243 249 248 251 256 251 248 245 240 242 245 251 248 245 247 244 250 251 253 249 251 243 243 243 242 245 249 247 246 245 244 243 242 244 244 242 241 241 241
263 257 257 259 255 259 257 255 254 256 253 252 251 249 246 250 251 254 255 256 254 251 248 250 251 247 248 250 249 247 249 248 248 250 248 251 252 253 252 250 248 251 250 252 249 248 247 246 245 244 243 243 244 242
263 263 253 247 251 254 252 251 251 253 255 256 254 252 253 256 255 259 256 254 256 251 249 249 253 254 255 250 252 250 247 252 253 252 248 252 254 256 255 253 252 253 251 251 251 249 249 248 247 246 245 240 242 243
261 258 262 255 253 253 257 254 255 257 257 256 256 254 257 260 263 262 258 253 250 246 246 245 245 247 248 248 247 247 244 245 248 250 250 250 248 249 250 248 248 255 250 252 252 250 249 249 248 246 245 245 244 244
258 256 257 255 254 254 257 260 259 257 256 257 258 259 260 262 260 255 252 248 245 247 249 248 249 242 243 243 244 244 246 249 251 250 253 257 254 256 252 252 251 250 250 250 255 253 250 249 248 247 247 247 248 246
253 253 256 256 258 260 258 253 253 250 251 251 250 251 253 254 255 251 248 247 249 250 249 245 243 244 246 244 246 245 244 248 253 253 251 255 259 256 254 253 253 252 251 252 252 253 259 255 256 249 247 247 247 247
252 253 255 257 258 255 250 248 248 249 249 250 248 249 249 247 248 248 246 245 245 242 243 244 243 241 244 244 244 244 247 248 250 250 251 252 254 254 254 254 254 253 253 253 252 252 252 251 251 250 249 248 248 248
250 253 257 258 257 250 249 249 250 249 249 248 249 247 248 247 248 251 246 243 242 243 246 243 242 246 243 242 241 243 248 248 246 251 252 255 254 255 255 255 254 253 253 253 253 253 252 251 251 250 250 250 249 247
252 254 253 252 254 254 252 252 250 249 248 247 248 248 248 248 251 251 247 246 248 247 246 245 242 241 242 242 244 244 247 246 248 257 257 259 258 257 256 255 255 254 254 253 253 252 251 251 250 250 249 249 248 247

GFSWCAN_sfc_thetae_144.txt.gz
Theta_e
301 301 302 303 304 305 304 306 306 305 305 305 305 305 304 303 300 294 290 290 287 283 283 284 285 284 287 287 286 287 286 285 282 278 276 274 270 274 275 279 279 279 279 278 274 267 270 273 278 280 276 274 274 272
299 300 300 300 303 305 305 305 305 305 305 305 305 305 304 303 300 294 287 291 291 286 284 287 286 287 286 286 289 285 285 283 285 279 274 272 267 269 271 275 280 275 279 276 278 276 273 273 273 274 275 273 271 271
298 298 299 299 299 302 303 304 304 304 305 305 304 304 303 302 301 295 287 286 289 285 285 283 282 286 289 287 289 285 285 288 286 286 280 272 269 276 269 269 276 279 281 277 275 271 270 271 270 270 270 269 269 269
297 297 297 298 298 298 300 302 303 302 302 302 301 301 301 300 298 294 287 286 287 284 280 281 289 284 288 291 292 291 290 288 287 283 275 269 272 279 275 278 277 277 280 275 271 271 270 269 269 269 269 268 267 267
296 297 296 297 297 298 297 299 301 302 301 300 300 300 299 298 297 292 288 286 286 284 275 278 285 285 286 289 289 290 289 286 282 277 272 272 277 277 274 276 272 271 274 276 275 273 271 270 268 269 267 266 265 265
295 295 295 296 296 297 297 297 298 299 299 300 299 300 300 298 296 293 287 290 287 287 280 277 283 281 281 285 285 285 286 284 279 277 280 276 280 278 268 266 266 266 266 266 267 267 268 267 267 267 265 264 264 264
294 294 294 295 295 295 296 296 296 296 297 297 298 297 296 293 287 282 281 284 290 287 282 276 277 280 279 283 282 283 285 278 278 274 272 276 278 275 264 265 264 264 264 264 265 267 265 267 263 264 264 263 263 264
293 294 294 294 294 294 295 295 294 294 296 296 295 294 294 293 289 281 284 284 287 283 280 276 275 277 277 278 278 280 279 279 277 274 274 272 274 268 266 264 264 263 263 262 262 263 263 263 262 261 262 262 261 261
292 293 293 293 293 293 294 294 294 293 293 295 294 291 283 279 278 279 289 284 277 278 269 266 269 271 274 275 277 278 276 273 272 270 269 271 266 267 264 265 264 263 263 262 261 260 260 259 259 258 258 257 258 258
291 292 292 293 292 293 293 293 293 291 293 293 281 276 272 273 287 283 274 273 269 265 265 261 262 265 270 272 270 271 271 270 265 264 266 260 260 260 261 262 264 263 263 262 259 256 255 253 256 256 256 256 256 256
291 291 291 292 292 292 292 292 292 287 285 273 268 269 275 282 274 266 264 264 260 260 258 257 259 260 268 265 264 271 268 266 264 263 264 256 261 262 259 259 260 261 259 257 257 257 256 255 254 253 251 250 251 250
291 290 290 291 291 291 291 290 290 276 267 271 272 271 269 266 265 266 254 258 258 256 254 255 258 261 261 267 262 265 261 263 261 257 260 258 262 256 256 254 254 255 255 252 251 254 254 255 253 252 251 250 250 250
291 290 290 290 291 290 290 289 287 286 280 269 266 262 265 259 262 259 253 257 255 251 253 252 257 259 261 264 259 259 259 257 258 258 258 261 257 253 251 250 248 245 246 248 246 245 247 248 247 248 249 248 248 248
290 289 289 289 290 290 289 287 284 279 269 262 261 260 257 255 251 249 251 251 254 255 251 253 251 257 254 260 257 257 257 258 253 254 257 258 255 255 249 246 249 248 246 248 249 246 248 248 248 247 248 248 248 248
289 288 287 287 289 288 287 283 280 264 263 258 260 255 253 250 247 245 243 247 250 249 251 252 252 262 253 256 257 255 256 253 256 258 257 256 250 253 249 245 247 249 248 249 248 250 251 251 250 249 247 246 246 247
288 282 280 288 288 286 284 271 264 260 255 257 254 253 247 249 249 245 243 247 248 253 251 251 250 254 252 251 255 254 255 255 259 255 255 251 252 251 249 250 252 252 251 252 251 250 249 248 249 250 248 248 249 247
283 268 285 287 287 280 279 263 261 254 254 254 252 241 248 246 252 248 246 249 253 250 253 248 255 255 255 252 253 252 256 258 257 254 248 250 253 252 249 248 247 247 247 247 246 247 251 251 248 249 249 248 249 249
266 273 285 285 277 269 259 257 256 256 252 248 255 250 244 245 245 244 243 247 250 248 248 254 255 251 252 253 254 256 255 250 246 248 250 248 247 247 250 251 249 249 249 250 254 253 250 251 251 251 247 246 247 248
275 277 283 282 274 261 260 259 257 254 249 245 246 247 245 244 245 245 242 245 246 247 250 248 250 251 255 253 256 251 246 250 253 252 250 247 250 250 250 248 250 252 256 255 253 253 251 251 251 250 249 248 249 248
281 280 281 277 273 263 260 257 255 256 252 252 247 247 247 247 244 240 241 244 246 245 250 250 255 256 256 256 256 256 254 254 252 249 250 251 250 249 252 255 257 257 255 250 247 249 246 247 246 247 247 247 247 248
273 271 275 266 259 257 255 251 253 250 249 251 245 249 247 244 244 244 245 244 248 250 253 255 252 250 244 244 245 247 251 255 256 257 255 252 254 255 252 253 255 250 251 250 251 249 250 250 249 250 248 247 247 247
264 275 262 266 261 255 254 250 253 251 253 247 250 247 248 249 247 245 243 246 250 254 253 251 249 246 246 250 249 246 248 249 246 249 251 254 252 253 252 254 252 251 250 251 250 251 251 248 245 245 246 246 246 245
271 268 262 259 261 258 253 251 253 251 256 253 249 253 252 250 247 247 248 249 252 252 246 245 244 240 244 241 240 242 241 249 251 250 248 250 246 246 248 251 253 252 250 250 246 248 248 248 248 248 246 246 245 245
268 260 261 257 259 254 249 251 252 251 253 252 253 254 252 250 248 250 253 255 256 249 246 245 241 245 244 244 245 248 250 246 246 245 243 248 249 249 247 249 249 251 251 244 247 248 247 246 248 248 246 244 241 242
266 264 261 258 253 255 253 252 252 253 256 251 252 252 250 246 253 252 255 259 256 256 252 247 246 247 253 247 247 246 244 250 252 254 250 251 247 245 244 241 243 246 245 245 244 243 242 243 246 246 245 243 244 242
264 258 259 259 254 258 256 255 254 258 255 252 250 246 245 250 253 258 259 259 258 258 254 252 252 247 248 250 250 248 250 248 247 251 251 251 254 255 255 252 251 252 249 252 249 248 247 246 245 245 245 245 245 241
261 263 255 250 253 253 254 252 253 258 258 257 253 251 253 255 257 261 259 257 258 254 251 250 253 254 254 250 251 251 245 249 251 251 247 249 254 256 257 255 254 255 252 252 252 250 251 249 248 248 248 242 244 245
261 260 262 257 256 256 258 256 256 259 260 257 256 255 257 259 263 264 260 254 249 247 245 244 245 248 248 249 248 245 244 243 245 246 246 246 247 251 252 252 251 257 253 253 253 253 252 252 251 250 249 249 248 246
259 258 259 257 257 256 258 260 261 260 259 259 259 259 260 262 261 259 254 248 243 247 249 248 249 242 243 243 243 242 243 248 249 249 248 251 249 252 251 253 254 254 253 253 257 254 253 253 252 251 250 250 250 249
255 252 255 255 257 259 258 254 253 251 252 252 251 253 254 256 258 255 247 244 247 249 247 246 243 245 246 245 244 244 242 246 250 252 250 249 251 249 249 253 255 255 254 254 255 256 261 257 258 250 250 249 249 249
249 251 254 255 256 253 249 248 249 250 250 251 250 251 252 250 251 251 247 244 243 241 244 245 243 240 242 242 241 242 246 245 247 248 246 246 246 246 249 252 254 254 254 254 255 255 255 254 254 252 251 250 250 250
250 251 253 254 253 249 248 250 251 251 251 252 252 249 251 250 252 252 246 243 242 244 245 243 243 246 244 242 240 241 247 244 244 247 247 250 250 248 249 251 253 254 253 254 254 254 254 254 253 252 252 251 251 250
250 251 251 251 252 253 252 252 252 251 249 250 252 251 251 249 252 252 246 245 247 247 246 245 244 241 242 243 243 243 245 243 245 254 256 255 254 254 252 253 254 254 254 254 254 254 253 253 252 251 251 251 251 250

GFSWCAN_sfc_thetae_147.txt.gz
Theta_e
301 302 303 305 306 306 307 307 307 306 306 305 305 305 304 302 303 297 291 292 290 283 283 285 285 287 289 290 286 286 287 286 284 281 279 277 276 277 276 279 282 281 279 276 272 270 270 274 278 279 277 276 275 273
300 301 301 302 304 305 305 305 305 305 305 305 305 304 303 303 302 296 289 292 292 286 284 286 286 286 285 286 290 289 288 286 288 280 278 276 275 274 274 277 280 276 280 276 279 277 273 273 273 274 276 273 272 271
298 299 300 300 301 302 304 304 304 304 304 304 304 303 302 301 300 295 288 287 290 284 284 284 282 286 289 287 289 287 286 289 285 285 279 276 273 277 272 271 276 279 281 277 276 272 271 270 270 271 272 270 270 270
296 297 297 298 298 300 302 302 302 302 302 302 301 300 299 299 297 294 287 287 288 285 281 282 288 284 288 290 291 291 289 287 287 285 279 275 276 280 276 278 277 278 281 274 272 270 270 270 270 269 269 268 268 268
295 296 296 296 297 297 298 300 301 302 301 300 300 300 299 299 297 291 288 287 287 285 280 282 284 284 286 290 289 290 289 286 283 282 278 278 279 277 273 276 272 272 275 277 276 273 272 271 270 270 268 266 267 266
295 295 295 295 296 296 296 297 298 299 299 300 301 300 298 298 296 293 286 288 288 285 282 276 282 281 281 286 286 285 285 284 283 279 277 277 281 279 268 266 266 265 266 266 267 268 269 268 269 269 266 265 266 265
293 294 294 294 295 295 295 295 295 297 298 298 297 296 295 295 288 284 281 283 287 287 278 273 274 280 278 283 282 282 284 281 281 274 273 276 278 275 264 268 264 264 264 267 267 267 264 266 263 265 265 264 264 263
293 293 294 294 294 294 294 294 294 295 296 296 295 294 292 292 288 281 285 284 285 281 279 270 270 276 277 277 278 280 280 280 275 271 273 272 276 269 267 265 265 264 264 263 262 263 265 263 263 263 263 263 261 261
292 292 293 293 293 293 293 293 293 293 295 295 293 290 284 280 278 279 289 282 277 277 267 264 262 268 274 275 277 279 278 274 273 272 270 270 270 273 264 265 264 264 265 262 261 261 261 260 259 259 258 258 259 259
292 292 292 292 293 292 293 292 292 290 294 294 282 275 274 276 286 284 276 273 268 265 264 259 262 265 271 273 273 275 275 270 271 267 268 264 261 259 261 261 265 265 263 262 259 256 256 255 257 257 257 257 258 257
292 291 291 292 292 292 292 291 291 287 284 272 268 268 275 281 275 269 265 264 260 260 257 257 259 260 268 269 270 272 269 266 265 262 264 259 262 263 260 260 262 263 262 259 259 259 257 258 257 256 254 253 253 252
291 291 290 291 291 291 291 290 289 275 267 271 272 270 268 266 265 266 254 258 259 258 254 255 258 259 260 265 261 264 263 263 261 255 260 258 262 256 256 256 257 257 257 255 255 257 257 257 256 256 255 253 252 251
291 291 290 290 291 291 290 289 287 285 280 268 266 262 265 260 263 258 255 258 255 251 251 251 257 259 261 263 257 258 259 256 256 257 257 261 258 254 251 250 249 246 248 250 248 249 252 250 248 250 251 247 247 247
290 290 288 289 290 290 288 286 283 277 267 262 260 261 257 254 252 251 252 252 254 254 250 252 250 256 252 260 256 257 256 256 253 255 258 257 254 252 250 246 249 249 247 248 248 246 249 249 248 246 247 248 249 248
290 289 287 287 289 289 286 282 278 263 262 259 260 257 254 249 246 243 241 245 249 249 251 251 251 261 253 255 255 253 256 252 255 258 258 257 251 251 250 245 246 247 247 246 246 248 249 249 249 250 248 247 247 247
289 282 279 288 288 286 284 270 262 258 254 256 252 252 246 249 248 244 242 246 248 253 250 251 250 254 251 250 255 253 254 255 259 255 257 249 247 249 249 249 250 247 249 247 248 248 250 251 250 251 247 245 247 246
284 268 285 287 287 280 278 262 260 253 254 253 252 240 247 246 252 247 246 249 252 250 253 248 255 255 254 252 254 251 256 258 258 256 249 249 251 254 251 250 249 248 248 247 246 244 247 246 243 244 247 247 244 245
265 272 285 286 279 268 258 256 256 255 252 247 255 250 243 244 246 243 242 246 249 247 247 254 255 251 253 253 254 257 256 251 246 248 249 247 245 246 250 251 248 248 248 246 246 247 247 248 250 253 251 247 246 244
277 280 283 282 274 259 260 258 256 255 248 244 245 246 243 243 244 244 242 244 245 246 250 247 250 252 255 253 256 251 246 250 255 253 250 247 249 250 249 246 248 247 248 248 251 254 255 254 254 252 250 247 248 245
281 280 281 277 272 262 259 256 254 256 252 251 246 246 246 246 243 239 240 243 246 246 250 251 256 256 257 256 256 255 254 253 252 250 252 250 249 248 250 251 252 252 253 254 255 254 252 252 250 247 247 248 246 248
274 271 274 265 259 257 255 251 252 249 248 252 247 251 251 248 246 245 244 243 248 251 254 255 253 251 245 244 244 245 249 253 256 258 257 252 249 252 250 251 252 252 253 255 255 255 253 254 250 250 247 247 247 245
265 275 262 265 261 256 255 253 253 250 251 246 251 250 251 251 249 246 247 247 250 255 255 252 249 246 246 249 249 247 247 247 245 248 250 253 250 250 249 253 253 254 254 256 256 254 252 252 248 246 248 248 245 244
271 268 262 259 261 260 254 253 253 248 254 252 249 252 252 250 248 249 250 253 255 254 249 248 244 241 244 241 240 241 241 246 250 250 249 251 246 247 249 253 256 256 253 253 249 250 250 248 248 248 246 245 245 244
269 261 262 259 260 256 250 251 253 252 251 253 254 255 253 253 249 250 254 257 258 249 248 251 248 248 244 243 245 247 249 247 246 245 245 250 250 250 249 252 251 255 254 246 249 250 248 247 248 247 247 246 244 246
265 263 261 259 254 257 254 254 254 256 258 255 253 254 252 249 252 252 255 259 256 255 256 254 252 254 256 249 248 247 243 250 252 254 250 252 246 245 245 241 245 249 246 247 244 244 242 243 246 247 246 246 247 245
262 259 260 261 256 259 257 255 257 259 258 255 255 250 249 253 253 258 259 259 258 260 258 257 257 253 249 250 248 248 251 247 247 250 249 252 254 256 256 253 253 253 248 252 253 250 249 247 247 247 247 247 247 245
261 262 256 253 258 258 256 256 257 259 259 259 254 251 255 257 257 261 261 258 259 260 257 257 256 255 253 249 248 247 242 247 250 249 246 247 251 254 255 255 255 256 251 252 254 253 253 251 250 250 250 248 248 248
260 258 260 257 257 259 261 258 259 259 260 257 257 256 259 260 263 264 260 257 255 253 252 246 245 247 247 246 245 244 242 241 243 245 246 248 247 248 249 250 249 257 251 253 254 254 255 254 253 252 251 251 251 248
256 255 258 258 258 256 258 261 261 260 258 260 261 261 261 263 262 258 254 251 248 248 250 250 250 241 242 241 240 240 241 246 248 248 247 249 248 251 247 248 249 248 249 252 257 255 255 255 254 254 253 253 253 251
258 255 256 255 257 258 257 252 253 251 252 252 251 254 256 258 258 255 251 250 250 252 250 247 243 245 246 246 245 245 241 244 248 250 248 248 249 246 243 245 248 249 250 251 254 256 262 259 258 252 251 251 250 249
250 251 253 254 256 253 249 247 247 248 248 249 250 252 253 252 253 255 253 247 248 246 247 247 245 241 242 241 242 242 246 242 242 245 245 245 244 243 244 245 247 249 252 254 255 256 257 256 254 253 252 251 251 251
250 253 255 254 255 250 246 246 249 249 249 251 251 249 251 251 255 254 248 246 245 246 249 245 245 248 245 242 241 241 247 242 242 245 245 246 246 245 246 246 246 249 252 255 255 255 255 255 255 254 253 253 252 251
252 252 251 252 253 251 249 249 248 247 246 248 250 252 252 250 254 253 247 246 248 248 247 247 244 242 243 243 243 242 245 242 243 252 255 255 252 250 246 246 247 250 253 254 254 255 254 255 254 254 253 252 252 251